sat.trackr.live / text

‹ back to catalog

STARLINK-31696

NORAD 59435 · 2024-065Q

PAYLOAD ACTIVE UNKNOWN

§ Identity

Operator
Country
US
Launch date
2024-04-07
Launch site
AFWTR
Launch vehicle
Mass (kg)
RCS (m²)

Purposes: comms

External: N2YO · Heavens-Above · Gunter

§ Orbital elements

Epoch: 2026-05-25T03:00:37.882080Z

Period
94.11 min
Inclination
53.1613°
Eccentricity
0.0001176
Mean motion
15.30197078 rev/d
Perigee alt
474.4 km
Apogee alt
476.0 km
Semi-major
6,853.4 km
B*
4.0386e-5
RAAN
286.5257°
Arg perigee
87.1594°
Mean anomaly
272.9542°
Rev number
12,063

§ Raw data

STARLINK-316961 59435U 24065Q   26145.12543845  .00000837  00000+0  40386-4 0  99952 59435  53.1613 286.5257 0001176  87.1594 272.9542 15.30197078120635

JSON: /api/v1/satellites/59435 · /tle

For live sub-satellite position, see the globe view (requires WebGL).

§ Visibility from observer

Set your observer location to see the next 7 days of passes ≥ 10°. The values pass through the URL so the page stays shareable.

No JS? Fill the form by hand. The geolocation button needs JavaScript.